"Pseudo-MPEC" for P21DeD2

Created 2023 Feb 7 14:22:07 UT using Find_Orb

Click here for an explanation of pseudo-MPECs

 
 Astrometry: 
     P21DeD2* C2023 01 24iDsNnVRAstrometry?cRo)S7m',nJlWvw]*NVk=NZ;GccX;(v$4EF52
     P21DeD2  C2023 01 24ah7Toredacted;wH?Cp@=THsy?G4[IwD'8'Wp;V1)mfyD4rgnhaeF52
     P21DeD2  C2023 01 24v0^v)`0d/-cjyjGI+WclickZ5KFhI5`k])RI%a!FGed0LMT%qUN#F52
     P21DeD2 3C2023 01 253/l^/4axtR\#+_]!F8GH$22*9g01B^4UGZmWnUUBa7lP]nwuoES[T14
     P21DeD2 3C2023 01 25W^uDn,A,tvT.j1y@D`2D-b[U_1J*d,':Jg[WaX1ovK!I;NHHhereT14
     P21DeD2 3C2023 01 257)#v:([Y4forQ[ok,6explanation'cQ9N;JKpfN1ov4,7\ts=-aT14

Station data:
(F52) Pan-STARRS 2, Haleakala  (N20.707382 W156.255910)  US/Hawaii.
   Observers J. Bulger, T. Dukes, T. Lowe, A. Schultz, M. Willman. Measurers
   K. Chambers, S. Chastel, T. de Boer, L. Denneau, J. Fairlamb, H.
   Flewelling, M. Huber, C.-C. Lin, E. Magnier, Y. Ramanjooloo, R. Wainscoat,
   R. Weryk. 1.8-m Ritchey-Chrétien + CCD.
(T14) Mauna Kea-UH/Tholen NEO Follow-Up (CFHT)  (N19.825252 W155.468876)
   US/Hawaii. 3.6-m Canada-France-Hawaii Telescope.

Orbital elements:  P21DeD2
   Perihelion 2022 Jan 25.92232 +/- 369 TT = 22:08:08 (JD 2459605.42232)
Epoch 2023 Jan 25.0 TT = JDT 2459969.5   Earth MOID: 0.7022      AutoNEOCP
M 138.54544052 +/- 100              (J2000 ecliptic)
n   0.38053813 +/- 0.192            Peri.  327.80669 +/- 70
a   1.88598077 +/- 0.634            Node     3.51774 +/- 37
e   0.1007592 +/- 0.246             Incl.   15.95115 +/- 35
P   2.59/946.01d           H 19.53  G  0.15   U 11.6  SR
q 1.69595070 +/- 1.08    Q 2.07601083 +/- 35.2
From 6 observations 2023 Jan. 24-25 (21.8 hr); mean residual 0".10
Residuals in arcseconds: 
230124 F52  .24-  .07+    230124 F52  .09+  .16-    230125 T14  .00   .01-    
230124 F52  .15+  .09+    230125 T14  .01+  .01+    230125 T14  .01-  .00     

Ephemerides (geocentric):
Date (UTC) HH   RA             Dec           delta  r     elong  mag " sig PA
---- --------  ------------   ------------  ------ ------ -----  --- --------
2023 02 07 14  07 33 46.006   +46 57 02.29  1.1810 2.0451 141.2 22.4 1038  33
2023 02 07 15  07 33 42.848   +46 56 37.92  1.1813 2.0451 141.2 22.4 1044  33
2023 02 07 16  07 33 39.696   +46 56 13.52  1.1815 2.0452 141.1 22.4 1050  33
2023 02 07 17  07 33 36.549   +46 55 49.09  1.1817 2.0452 141.1 22.4 1057  33
2023 02 07 18  07 33 33.408   +46 55 24.62  1.1820 2.0452 141.1 22.4 1063  33
2023 02 07 19  07 33 30.273   +46 55 00.13  1.1822 2.0452 141.0 22.4 1069  33
2023 02 07 20  07 33 27.143   +46 54 35.60  1.1824 2.0453 141.0 22.4 1076  33
2023 02 07 21  07 33 24.018   +46 54 11.04  1.1827 2.0453 141.0 22.4 1082  33
2023 02 07 22  07 33 20.899   +46 53 46.45  1.1829 2.0453 140.9 22.4 1089  33
2023 02 07 23  07 33 17.786   +46 53 21.83  1.1832 2.0454 140.9 22.4 1095  33
2023 02 08 00  07 33 14.678   +46 52 57.17  1.1834 2.0454 140.9 22.4 1102  33
2023 02 08 01  07 33 11.576   +46 52 32.49  1.1836 2.0454 140.8 22.4 1108  33
2023 02 08 02  07 33 08.480   +46 52 07.77  1.1839 2.0454 140.8 22.4 1115  33
2023 02 08 03  07 33 05.389   +46 51 43.02  1.1841 2.0455 140.8 22.4 1121  33
2023 02 08 04  07 33 02.304   +46 51 18.24  1.1843 2.0455 140.7 22.4 1128  33
2023 02 08 05  07 32 59.224   +46 50 53.43  1.1846 2.0455 140.7 22.4 1134  33
2023 02 08 06  07 32 56.150   +46 50 28.59  1.1848 2.0455 140.7 22.4 1141  33
2023 02 08 07  07 32 53.081   +46 50 03.72  1.1851 2.0456 140.6 22.4 1147  33
2023 02 08 08  07 32 50.018   +46 49 38.82  1.1853 2.0456 140.6 22.4 1154  33
2023 02 08 09  07 32 46.961   +46 49 13.88  1.1856 2.0456 140.6 22.4 1161  33
2023 02 08 10  07 32 43.909   +46 48 48.92  1.1858 2.0456 140.5 22.4 1167  33
2023 02 08 11  07 32 40.863   +46 48 23.92  1.1860 2.0457 140.5 22.4 1174  34
2023 02 08 12  07 32 37.823   +46 47 58.90  1.1863 2.0457 140.5 22.4 1181  34
2023 02 08 13  07 32 34.788   +46 47 33.84  1.1865 2.0457 140.4 22.4 1187  34
2023 02 08 14  07 32 31.759   +46 47 08.75  1.1868 2.0457 140.4 22.4 1194  34
2023 02 08 15  07 32 28.736   +46 46 43.63  1.1870 2.0458 140.4 22.4 1201  34
2023 02 08 16  07 32 25.718   +46 46 18.49  1.1872 2.0458 140.3 22.4 1208  34
2023 02 08 17  07 32 22.706   +46 45 53.31  1.1875 2.0458 140.3 22.4 1215  34
2023 02 08 18  07 32 19.699   +46 45 28.10  1.1877 2.0459 140.3 22.4 1221  34
2023 02 08 19  07 32 16.698   +46 45 02.86  1.1880 2.0459 140.2 22.4 1228  34
2023 02 08 20  07 32 13.703   +46 44 37.59  1.1882 2.0459 140.2 22.4 1235  34
2023 02 08 21  07 32 10.714   +46 44 12.29  1.1885 2.0459 140.2 22.4 1242  34
2023 02 08 22  07 32 07.730   +46 43 46.96  1.1887 2.0460 140.1 22.4 1249  34
2023 02 08 23  07 32 04.752   +46 43 21.60  1.1890 2.0460 140.1 22.4 1256  34
2023 02 09 00  07 32 01.779   +46 42 56.21  1.1892 2.0460 140.1 22.4 1263  34
2023 02 09 01  07 31 58.812   +46 42 30.79  1.1895 2.0460 140.0 22.4 1270  34
2023 02 09 02  07 31 55.851   +46 42 05.34  1.1897 2.0461 140.0 22.4 1277  34
2023 02 09 03  07 31 52.896   +46 41 39.87  1.1900 2.0461 140.0 22.5 1284  34
2023 02 09 04  07 31 49.946   +46 41 14.36  1.1902 2.0461 139.9 22.5 1291  34
2023 02 09 05  07 31 47.002   +46 40 48.82  1.1904 2.0461 139.9 22.5 1298  34
2023 02 09 06  07 31 44.063   +46 40 23.25  1.1907 2.0462 139.9 22.5 1305  34
2023 02 09 07  07 31 41.130   +46 39 57.66  1.1909 2.0462 139.8 22.5 1312  34
2023 02 09 08  07 31 38.203   +46 39 32.03  1.1912 2.0462 139.8 22.5 1319  34
2023 02 09 09  07 31 35.282   +46 39 06.38  1.1914 2.0462 139.8 22.5 1326  34
2023 02 09 10  07 31 32.366   +46 38 40.69  1.1917 2.0463 139.7 22.5 1333  34
2023 02 09 11  07 31 29.457   +46 38 14.98  1.1919 2.0463 139.7 22.5 1340  34
2023 02 09 12  07 31 26.552   +46 37 49.24  1.1922 2.0463 139.7 22.5 1347  34
2023 02 09 13  07 31 23.654   +46 37 23.47  1.1924 2.0463 139.6 22.5 1354  34